WX2DX-2 Weather Reports


Display with metric or nautical units.
time (UTC)temp
F
wind
direction
speed
MPH
gust
MPH
rain 1hr
in
rain 24hr
in
rain mn
in
humidity
%
barometer
mb
20260504231554 70 193 5.0 15.0 0.00 0.00 0.00 46 1005.9
20260504230046 71 265 9.0 14.0 0.00 0.00 0.00 44 1005.8
20260504224546 71 232 8.0 19.0 0.00 0.00 0.00 43 1005.8
20260504223045 71 239 7.0 20.0 0.00 0.00 0.00 44 1005.8
20260504221549 72 196 8.0 19.0 0.00 0.00 0.00 42 1005.6
20260504220042 74 219 7.0 18.0 0.00 0.00 0.00 42 1005.7
20260504214542 74 176 7.0 16.0 0.00 0.00 0.00 40 1005.7
20260504213043 74 261 8.0 19.0 0.00 0.00 0.00 38 1005.6
20260504211539 74 211 8.0 18.0 0.00 0.00 0.00 37 1005.7
20260504210036 74 238 7.0 17.0 0.00 0.00 0.00 36 1005.9
20260504204612 74 238 8.0 17.0 0.00 0.00 0.00 39 1006.0
20260504203032 74 241 5.0 19.0 0.00 0.00 0.00 43 1006.2
20260504201529 71 203 5.0 14.0 0.00 0.00 0.00 42 1006.3
20260504200033 73 248 8.0 17.0 0.00 0.00 0.00 40 1006.5
20260504194525 73 224 10.0 18.0 0.00 0.00 0.00 37 1006.6
20260504193025 73 199 7.0 22.0 0.00 0.00 0.00 36 1006.9
20260504191521 73 231 9.0 16.0 0.00 0.00 0.00 35 1007.1
20260504190017 73 156 5.0 12.0 0.00 0.00 0.00 41 1007.2
20260504184514 72 221 11.0 19.0 0.00 0.00 0.00 36 1007.5
20260504183012 72 218 6.0 21.0 0.00 0.00 0.00 38 1007.8
20260504181511 71 192 7.0 19.0 0.00 0.00 0.00 43 1008.0
20260504180006 70 214 10.0 17.0 0.00 0.00 0.00 43 1008.1
20260504174505 69 244 9.0 21.0 0.00 0.00 0.00 44 1008.4
20260504173002 70 221 10.0 21.0 0.00 0.00 0.00 44 1008.6
20260504171505 69 250 11.0 17.0 0.00 0.00 0.00 42 1008.9
20260504081553 34 183 1.0 2.0 0.00 0.00 0.00 84 1012.5
20260504050021 40 180 0.0 2.0 0.00 0.00 0.00 72 1013.3
20260504044525 40 239 0.0 2.0 0.00 0.00 0.00 71 1013.3
20260504043019 40 239 0.0 3.0 0.00 0.00 0.00 71 1013.2
20260504041515 40 255 0.0 2.0 0.00 0.00 0.00 70 1013.2
20260504040011 41 244 0.0 2.0 0.00 0.00 0.00 68 1013.3
20260504034508 42 230 1.0 3.0 0.00 0.00 0.00 68 1013.1
20260504033042 42 245 0.0 2.0 0.00 0.00 0.00 65 1013.1
20260504031540 42 217 1.0 3.0 0.00 0.00 0.00 66 1013.1
20260504030044 41 248 0.0 0.0 0.00 0.00 0.00 1013.0
20260504021553 43 237 0.0 2.0 0.00 0.00 0.00 68 1013.3
20260504020051 43 210 1.0 3.0 0.00 0.00 0.00 64 1013.2
20260504014602 45 223 0.0 2.0 0.00 0.00 0.00 60 1013.1
20260504013053 47 221 0.0 2.0 0.00 0.00 0.00 55 1013.1
20260504011554 49 219 0.0 3.0 0.00 0.00 0.00 53 1012.9
20260504010056 50 211 1.0 3.0 0.00 0.00 0.00 49 1012.9
20260504004549 51 238 2.0 6.0 0.00 0.00 0.00 47 1012.8
20260504003052 52 242 3.0 9.0 0.00 0.00 0.00 46 1012.8
20260504001547 53 266 3.0 8.0 0.00 0.00 0.00 45 1012.6
20260504000049 54 234 4.0 12.0 0.00 0.00 0.00 44 1012.5
20260503234550 54 228 6.0 12.0 0.00 0.00 0.00 42 1012.5
20260503233045 55 265 3.0 14.0 0.00 0.00 0.00 43 1012.5